Weather History for Waterloo, IA

Change the Weather History Date:

Friday, November 30, 2012

  Actual Average Record
Temperature  
Mean Temperature 36 °F 28 °F  
Max Temperature 47 °F 37 °F 65 °F (1922)
Min Temperature 24 °F 19 °F -9 °F (1929)
Degree Days  
Heating Degree Days 29 37  
Month to date heating degree days 795 859  
Since 1 July heating degree days 1488 1483  
Cooling Degree Days 0 0  
Month to date cooling degree days 0 0  
Year to date cooling degree days 1083 799  
Moisture  
Dew Point 29 °F    
Average Humidity 83    
Maximum Humidity 100    
Minimum Humidity 65    
Precipitation  
Precipitation 0.00 in 0.06 in 1.40 in (1934)
Month to date precipitation 1.14 2.01  
Year to date precipitation 22.32 33.40  
Snow  
Snow 0.00 in 0.20 in 14.00 in (1934)
Month to date snowfall T 3.1  
Since 1 July snowfall T 3.4  
Since 1 September snowfall T 3.4  
Snow Depth 0.00 in    
Sea Level Pressure  
Sea Level Pressure 30.09 in    
Wind  
Wind Speed 7 mph (ENE)    
Max Wind Speed 14 mph    
Max Gust Speed 17 mph    
Visibility 4 miles    
Events      
T = Trace of Precipitation, MM = Missing Value Source: NWS Daily Summary

Daily Weather History Graph

Daily Weather History Graph

Search for Another Location

Airport:

Trip Planner

Search our weather history database for the weather conditions in past years. The results will help you decide how hot, cold, wet, or windy it might be!

Date:

Astronomy

Nov. 30, 2012 Rise Set
Actual Time 7:19 AM CST 4:37 PM CST
Civil Twilight 6:47 AM CST 5:09 PM CST
Nautical Twilight 6:12 AM CST 5:44 PM CST
Astronomical Twilight 5:38 AM CST 6:17 PM CST
Moon 6:33 PM CST (11/30) 8:51 AM CST (11/30)
Length of Visible Light 10h 21m
Length of Day
9h 18m
Waning Gibbous, 96% of the Moon is Illuminated
Nov 30
Waning Gibbous
Dec 6
Last Quarter
Dec 13
New
Dec 19
First Quarter
Dec 28
Full

Hourly Weather History & Observations

Time (CST) Temp. Windchill Dew Point Humidity Pressure Visibility Wind Dir Wind Speed Gust Speed Precip Events Conditions
12:54 AM 26.1 °F 18.4 °F 24.1 °F 92% 30.02 in 7.0 mi ENE 6.9 mph - N/A   Clear
1:54 AM 26.1 °F - 24.1 °F 92% 30.02 in 6.0 mi Calm Calm - N/A   Clear
2:54 AM 25.0 °F 19.3 °F 23.0 °F 92% 30.02 in 5.0 mi ENE 4.6 mph - N/A   Clear
3:54 AM 27.0 °F 20.5 °F 26.1 °F 96% 30.02 in 6.0 mi NE 5.8 mph - N/A   Clear
4:54 AM 27.0 °F 23.0 °F 25.0 °F 92% 30.04 in 6.0 mi NE 3.5 mph - N/A   Clear
5:54 AM 28.0 °F 24.2 °F 26.1 °F 92% 30.06 in 4.0 mi ENE 3.5 mph - N/A   Scattered Clouds
6:54 AM 28.0 °F 22.8 °F 26.1 °F 92% 30.07 in 5.0 mi ENE 4.6 mph - N/A   Clear
7:54 AM 30.0 °F 25.2 °F 27.0 °F 88% 30.08 in 3.0 mi East 4.6 mph - N/A   Clear
8:54 AM 34.0 °F 28.8 °F 32.0 °F 92% 30.11 in 3.0 mi ENE 5.8 mph - N/A   Clear
9:54 AM 37.9 °F 30.9 °F 34.0 °F 86% 30.13 in 4.0 mi ENE 10.4 mph - N/A   Clear
10:54 AM 43.0 °F 37.2 °F 35.1 °F 74% 30.12 in 5.0 mi ENE 10.4 mph - N/A   Haze
11:54 AM 44.1 °F 38.1 °F 35.1 °F 71% 30.10 in 5.0 mi ENE 11.5 mph - N/A   Haze
12:54 PM 46.0 °F 41.0 °F 36.0 °F 68% 30.10 in 6.0 mi East 10.4 mph - N/A   Haze
1:54 PM 46.0 °F 41.4 °F 36.0 °F 68% 30.10 in 6.0 mi East 9.2 mph - N/A   Haze
2:54 PM 44.1 °F 38.6 °F 35.1 °F 71% 30.09 in 5.0 mi ENE 10.4 mph - N/A   Haze
3:54 PM 42.1 °F 36.6 °F 34.0 °F 73% 30.12 in 4.0 mi NE 9.2 mph - N/A   Haze
4:54 PM 35.1 °F 27.9 °F 30.9 °F 85% 30.13 in 5.0 mi East 9.2 mph - N/A   Clear
5:54 PM 33.1 °F 26.1 °F 30.0 °F 89% 30.14 in 4.0 mi ENE 8.1 mph - N/A   Clear
6:54 PM 32.0 °F 24.8 °F 30.0 °F 92% 30.13 in 3.0 mi ENE 8.1 mph - N/A   Clear
7:54 PM 30.9 °F - 28.9 °F 92% 30.13 in 2.5 mi Calm Calm - N/A   Clear
8:22 PM 30.2 °F - 28.4 °F 93% 30.10 in 1.8 mi Calm Calm - N/A   Clear
8:54 PM 26.6 °F 19.1 °F 26.6 °F 100% 30.08 in 0.8 mi East 6.9 mph - N/A   Mist
9:10 PM 26.6 °F 20.0 °F 26.6 °F 100% 30.08 in 1.2 mi East 5.8 mph - N/A   Partly Cloudy
9:51 PM 30.2 °F 25.4 °F 28.4 °F 93% 30.08 in 2.0 mi ESE 4.6 mph - N/A   Clear
9:54 PM 30.2 °F 26.7 °F 28.4 °F 93% 30.08 in 2.0 mi ESE 3.5 mph - N/A   Clear
10:54 PM 30.0 °F 25.2 °F 28.9 °F 96% 30.11 in 2.0 mi East 4.6 mph - N/A   Clear
11:40 PM 30.2 °F 24.3 °F 28.4 °F 93% 30.07 in 1.8 mi ESE 5.8 mph - N/A   Clear
11:54 PM 30.0 °F 23.2 °F 28.9 °F 96% 30.10 in 2.0 mi ESE 6.9 mph - N/A   Clear